Location: Unspecified
(34.3660°N, 0.0000°E)
Time: 06:43:14
(UTC+00:00)

Iridium 24 - Visible Passes

Search period start: 04 April 2026 00:00
Search period end: 14 April 2026 00:00
Orbit: 743 x 758 km, 86.4° (Epoch: 29 March)

Date Brightness Start Highest point End Pass type
(mag) Time Alt. Az. Time Alt. Az. Time Alt. Az.
4 Apr 6.4 19:07:49 10° NNE 19:11:59 25° E 19:15:50 11° SE visible
4 Apr 7.3 20:47:46 10° NNW 20:52:01 27° W 20:55:48 12° SW visible
5 Apr 5.7 20:05:37 10° N 20:10:38 67° W 20:15:18 12° S visible
6 Apr 5.6 19:24:08 10° N 19:29:03 50° E 19:33:55 10° SSE visible
6 Apr 8.3 21:06:07 10° NW 21:08:39 14° W 21:11:12 10° WSW visible
7 Apr 7.1 20:22:55 10° NNW 20:27:25 33° W 20:31:53 10° SSW visible
8 Apr 5.5 19:40:56 10° N 19:45:59 81° W 19:51:00 10° S visible
9 Apr 5.8 18:59:35 10° NNE 19:04:21 41° E 19:09:06 10° SSE visible
9 Apr 8.2 20:40:55 10° NW 20:44:05 17° W 20:47:16 10° WSW visible
10 Apr 6.8 19:58:06 10° NNW 20:02:48 40° W 20:07:28 10° SSW visible
11 Apr 5.4 19:16:16 10° N 19:21:20 84° E 19:26:22 10° S visible
12 Apr 8.0 20:15:51 10° NW 20:19:30 20° W 20:23:09 10° SW visible
13 Apr 6.5 19:33:20 10° NNW 19:38:10 48° W 19:42:59 10° SSW visible
